FW6456 Weather Reports


time (UTC)temp
C
wind
direction
speed
KPH
gust
KPH
rain 1hr
cm
rain 24hr
cm
rain mn
cm
humidity
%
barometer
mb
20260508125050 8 89 1.6 3.2 0.00 0.00 0.00 97 3409.0
20260508124548 8 60 0.0 0.0 0.00 0.00 0.00 99 3408.7
20260508124044 8 51 0.0 0.0 0.00 0.00 0.00 99 3409.0
20260508123543 7 49 0.0 0.0 0.00 0.00 0.00 99 3408.8
20260508123039 7 49 0.0 0.0 0.00 0.00 0.00 99 3408.7
20260508122536 7 46 0.0 0.0 0.00 0.00 0.00 99 3408.8
20260508122033 7 46 0.0 0.0 0.00 0.00 0.00 99 3408.9
20260508121531 6 46 0.0 0.0 0.00 0.00 0.00 99 3408.7
20260508121029 6 46 0.0 0.0 0.00 0.00 0.00 99 3408.6
20260508120526 6 46 0.0 0.0 0.00 0.00 0.00 99 3408.7
20260508120024 5 46 0.0 0.0 0.00 0.00 0.00 99 3408.7
20260508115521 5 46 0.0 0.0 0.00 0.00 0.00 99 3408.7
20260508115018 5 47 0.0 0.0 0.00 0.00 0.00 99 3408.6
20260508114514 5 47 0.0 0.0 0.00 0.00 0.00 99 3408.7
20260508114011 5 47 0.0 0.0 0.00 0.00 0.00 99 3408.8
20260508113509 5 47 0.0 0.0 0.00 0.00 0.00 99 3408.8
20260508113006 5 47 0.0 0.0 0.00 0.00 0.00 99 3408.7
20260508112502 5 47 0.0 0.0 0.00 0.00 0.00 99 3408.7
20260508111959 5 47 0.0 0.0 0.00 0.00 0.00 99 3408.5
20260508111456 4 47 0.0 0.0 0.00 0.00 0.00 99 3408.5
20260508110953 4 47 0.0 0.0 0.00 0.00 0.00 99 3408.5
20260508110451 4 47 0.0 0.0 0.00 0.00 0.00 99 3408.4
20260508105950 4 47 0.0 0.0 0.00 0.00 0.00 99 3408.3
20260508105447 4 47 0.0 0.0 0.00 0.00 0.00 99 3408.3
20260508104944 4 47 0.0 0.0 0.00 0.00 0.00 99 3408.3
20260508104442 4 47 0.0 0.0 0.00 0.00 0.00 99 3408.4
20260508103938 4 47 0.0 0.0 0.00 0.00 0.00 99 3408.4
20260508103436 4 47 0.0 0.0 0.00 0.00 0.00 99 3408.4
20260508102932 4 47 0.0 0.0 0.00 0.00 0.00 99 3408.2
20260508102431 4 47 0.0 0.0 0.00 0.00 0.00 99 3408.2
20260508101927 5 47 0.0 0.0 0.00 0.00 0.00 99 3408.2
20260508101425 4 47 0.0 0.0 0.00 0.00 0.00 99 3408.2
20260508100922 4 47 0.0 0.0 0.00 0.00 0.00 99 3408.3
20260508100421 5 47 0.0 0.0 0.00 0.00 0.00 99 3408.3
20260508095917 4 47 0.0 0.0 0.00 0.00 0.00 99 3408.1
20260508095414 5 47 0.0 0.0 0.00 0.00 0.00 99 3408.3
20260508094910 5 47 0.0 0.0 0.00 0.00 0.00 99 3408.2
20260508094408 5 47 0.0 0.0 0.00 0.00 0.00 99 3408.2
20260508093905 5 47 0.0 0.0 0.00 0.00 0.00 99 3408.4
20260508093402 5 47 0.0 0.0 0.00 0.00 0.00 99 3408.4
20260508092900 5 47 0.0 0.0 0.00 0.00 0.00 99 3408.5
20260508092357 5 47 0.0 0.0 0.00 0.00 0.00 99 3408.0
20260508091856 5 47 0.0 0.0 0.00 0.00 0.00 99 3408.4
20260508091352 5 47 0.0 0.0 0.00 0.00 0.00 99 3408.4
20260508090849 5 47 0.0 0.0 0.00 0.00 0.00 99 3408.2
20260508090348 5 47 0.0 0.0 0.00 0.00 0.00 99 3408.2
20260508085843 5 47 0.0 0.0 0.00 0.00 0.00 99 3408.3
20260508085340 5 47 0.0 0.0 0.00 0.00 0.00 99 3408.2
20260508084837 5 47 0.0 0.0 0.00 0.00 0.00 99 3408.3
20260508084333 5 47 0.0 0.0 0.00 0.00 0.00 99 3408.3
20260508083831 5 47 0.0 0.0 0.00 0.00 0.00 99 3408.4
20260508083328 5 47 0.0 0.0 0.00 0.00 0.00 99 3408.3
20260508082828 5 47 0.0 0.0 0.00 0.00 0.00 99 3408.4
20260508082326 5 47 0.0 0.0 0.00 0.00 0.00 99 3408.6
20260508081823 5 47 0.0 0.0 0.00 0.00 0.00 99 3408.5
20260508081320 5 47 0.0 0.0 0.00 0.00 0.00 99 3408.4
20260508080817 5 47 0.0 0.0 0.00 0.00 0.00 99 3408.6
20260508080315 5 47 0.0 0.0 0.00 0.00 0.00 99 3408.5
20260508075811 5 47 0.0 0.0 0.00 0.00 0.00 99 3408.6
20260508075309 5 47 0.0 0.0 0.00 0.00 0.00 99 3408.8
20260508074806 5 47 0.0 0.0 0.00 0.00 0.00 99 3408.7
20260508074303 5 46 0.0 0.0 0.00 0.00 0.00 99 3408.5
20260508073800 5 46 0.0 0.0 0.00 0.00 0.00 99 3408.6
20260508073258 5 46 0.0 0.0 0.00 0.00 0.00 99 3408.7
20260508072753 5 46 0.0 0.0 0.00 0.00 0.00 99 3408.8
20260508072251 5 46 0.0 0.0 0.00 0.00 0.00 99 3408.9
20260508071748 5 46 0.0 0.0 0.00 0.00 0.00 99 3408.8
20260508071246 5 46 0.0 0.0 0.00 0.00 0.00 99 3408.8
20260508070743 5 46 0.0 0.0 0.00 0.00 0.00 99 3408.8
20260508070242 6 46 0.0 0.0 0.00 0.00 0.00 99 3408.8
20260508065738 6 46 0.0 0.0 0.00 0.00 0.00 99 3408.6
20260508065236 6 46 0.0 0.0 0.00 0.00 0.00 98 3408.7
20260508064734 6 46 0.0 0.0 0.00 0.00 0.00 98 3408.9
20260508064232 6 46 0.0 0.0 0.00 0.00 0.00 98 3408.9
20260508063729 6 46 0.0 0.0 0.00 0.00 0.00 98 3408.8
20260508063227 6 46 0.0 0.0 0.00 0.00 0.00 98 3409.0
20260508062724 6 46 0.0 0.0 0.00 0.00 0.00 98 3409.1
20260508062222 6 46 0.0 0.0 0.00 0.00 0.00 98 3409.0
20260508061718 6 46 0.0 0.0 0.00 0.00 0.00 98 3409.0
20260508061216 6 46 0.0 0.0 0.00 0.00 0.00 98 3409.0
20260508060712 6 46 0.0 0.0 0.00 0.00 0.00 98 3409.1
20260508060210 6 46 0.0 0.0 0.00 0.00 0.00 98 3409.0
20260508055705 6 46 0.0 0.0 0.00 0.00 0.00 98 3409.0
20260508055202 6 46 0.0 0.0 0.00 0.00 0.00 98 3409.0
20260508054658 6 46 0.0 0.0 0.00 0.00 0.00 98 3409.2
20260508054156 6 46 0.0 0.0 0.00 0.00 0.00 98 3408.9
20260508053653 6 46 0.0 0.0 0.00 0.00 0.00 97 3409.1
20260508053150 6 46 0.0 0.0 0.00 0.00 0.00 97 3409.0
20260508052648 6 46 0.0 0.0 0.00 0.00 0.00 97 3409.0
20260508052144 6 46 0.0 0.0 0.00 0.00 0.00 97 3409.1
20260508051641 6 46 0.0 0.0 0.00 0.00 0.00 97 3409.1
20260508051136 6 46 0.0 0.0 0.00 0.00 0.00 97 3409.0
20260508050633 6 46 0.0 0.0 0.00 0.00 0.00 97 3408.9
20260508050131 6 46 0.0 0.0 0.00 0.00 0.00 97 3408.8
20260508045626 6 46 0.0 0.0 0.00 0.00 0.00 96 3409.1
20260508045124 7 44 0.0 0.0 0.00 0.00 0.00 96 3408.8
20260508044621 7 44 0.0 0.0 0.00 0.00 0.00 96 3409.0
20260508044117 6 44 0.0 0.0 0.00 0.00 0.00 96 3409.2
20260508043614 7 44 0.0 0.0 0.00 0.00 0.00 96 3409.2
20260508043112 7 44 0.0 0.0 0.00 0.00 0.00 95 3409.2
20260508042608 7 44 0.0 0.0 0.00 0.00 0.00 95 3409.3
20260508042106 7 44 0.0 0.0 0.00 0.00 0.00 95 3409.4
20260508041601 7 44 0.0 0.0 0.00 0.00 0.00 95 3409.5
20260508041058 7 44 0.0 0.0 0.00 0.00 0.00 95 3408.9
20260508040555 7 44 0.0 0.0 0.00 0.00 0.00 94 3409.1
20260508040053 7 44 0.0 0.0 0.00 0.00 0.00 94 3409.1
20260508035549 7 44 0.0 0.0 0.00 0.00 0.00 94 3409.2
20260508035047 7 44 0.0 0.0 0.00 0.00 0.00 93 3408.9
20260508034543 7 44 0.0 0.0 0.00 0.00 0.00 92 3409.0
20260508034040 7 44 0.0 0.0 0.00 0.00 0.00 92 3408.9
20260508033538 7 43 0.0 0.0 0.00 0.00 0.00 92 3408.9
20260508033036 8 39 0.0 0.0 0.00 0.00 0.00 91 3409.1
20260508032532 8 39 0.0 0.0 0.00 0.00 0.00 90 3409.0
20260508032030 8 39 0.0 0.0 0.00 0.00 0.00 90 3409.0
20260508031527 8 39 0.0 0.0 0.00 0.00 0.00 89 3409.0
20260508031023 8 39 0.0 0.0 0.00 0.00 0.00 89 3409.0
20260508030520 8 39 0.0 0.0 0.00 0.00 0.00 89 3408.9
20260508030018 8 39 0.0 0.0 0.00 0.00 0.00 88 3409.0
20260508025513 8 39 0.0 0.0 0.00 0.00 0.00 87 3408.9
20260508025010 8 39 0.0 0.0 0.00 0.00 0.00 86 3409.0
20260508024506 8 39 0.0 0.0 0.00 0.00 0.00 85 3409.1
20260508024003 8 39 0.0 0.0 0.00 0.00 0.00 84 3409.1
20260508023500 8 39 0.0 0.0 0.00 0.00 0.00 83 3409.1
20260508022958 9 39 0.0 0.0 0.00 0.00 0.00 83 3409.1
20260508022453 9 39 0.0 0.0 0.00 0.00 0.00 82 3409.1
20260508021950 9 39 0.0 0.0 0.00 0.00 0.00 81 3408.9
20260508021446 9 39 0.0 0.0 0.00 0.00 0.00 80 3408.9
20260508020942 9 39 0.0 0.0 0.00 0.00 0.00 79 3409.0
20260508020440 10 35 0.0 0.0 0.00 0.00 0.00 78 3408.7
20260508015937 10 34 0.0 0.0 0.00 0.00 0.00 77 3408.7
20260508015435 10 33 0.0 0.0 0.00 0.00 0.00 76 3408.8
20260508014931 10 33 0.0 0.0 0.00 0.00 0.00 75 3408.7
20260508014428 10 33 0.0 0.0 0.00 0.00 0.00 75 3408.5
20260508013924 10 33 0.0 0.0 0.00 0.00 0.00 75 3408.5
20260508013420 11 33 0.0 0.0 0.00 0.00 0.00 74 3408.5
20260508012917 11 33 0.0 0.0 0.00 0.00 0.00 73 3408.5
20260508012414 11 33 0.0 0.0 0.00 0.00 0.00 72 3408.5
20260508011912 11 33 0.0 0.0 0.00 0.00 0.00 71 3408.5
20260508011410 11 33 0.0 0.0 0.00 0.00 0.00 71 3408.3
20260508010907 12 33 0.0 0.0 0.00 0.00 0.00 68 3408.1
20260508010404 12 33 0.0 0.0 0.00 0.00 0.00 67 3408.4
20260508005901 12 33 0.0 0.0 0.00 0.00 0.00 68 3408.2
20260508005357 12 32 0.0 0.0 0.00 0.00 0.00 67 3408.1
20260508004854 13 32 0.0 0.0 0.00 0.00 0.00 65 3408.2
20260508004350 13 33 0.0 0.0 0.00 0.00 0.00 63 3408.0
20260508003847 13 32 0.0 0.0 0.00 0.00 0.00 63 3407.9
20260508003344 13 32 0.0 0.0 0.00 0.00 0.00 64 3408.1
20260508002841 14 32 0.0 0.0 0.00 0.00 0.00 60 3408.1
20260508002338 14 32 0.0 0.0 0.00 0.00 0.00 57 3408.0
20260508001834 15 32 0.0 0.0 0.00 0.00 0.00 57 3407.8
20260508001330 15 32 0.0 0.0 0.00 0.00 0.00 54 3407.9
20260508000826 15 32 0.0 0.0 0.00 0.00 0.00 51 3407.8
20260508000323 16 32 0.0 0.0 0.00 0.00 0.00 51 3407.7
20260507235820 16 32 0.0 0.0 0.00 0.00 0.00 50 3407.9
20260507235317 16 32 0.0 0.0 0.00 0.00 0.00 48 3407.7
20260507234814 16 52 0.0 0.0 0.00 0.00 0.00 46 3407.6
20260507234311 16 53 0.0 0.0 0.00 0.00 0.00 44 3407.5
20260507233807 17 74 1.6 3.2 0.00 0.00 0.00 43 3407.8
20260507233305 17 37 0.0 3.2 0.00 0.00 0.00 44 3407.6
20260507232803 17 70 0.0 0.0 0.00 0.00 0.00 43 3407.7
20260507232259 17 353 3.2 4.8 0.00 0.00 0.00 42 3407.7
20260507231755 17 38 0.0 3.2 0.00 0.00 0.00 42 3407.6
20260507231253 18 44 1.6 3.2 0.00 0.00 0.00 42 3407.8
20260507230749 18 41 1.6 3.2 0.00 0.00 0.00 40 3407.8
20260507230247 19 56 0.0 0.0 0.00 0.00 0.00 42 3407.8
20260507225746 18 302 3.2 4.8 0.00 0.00 0.00 40 3407.8
20260507225242 19 337 4.8 4.8 0.00 0.00 0.00 38 3407.8
20260507224738 18 26 1.6 3.2 0.00 0.00 0.00 41 3407.7
20260507224235 19 24 1.6 3.2 0.00 0.00 0.00 40 3408.0
20260507223731 19 302 1.6 3.2 0.00 0.00 0.00 39 3407.8
20260507223228 18 14 1.6 3.2 0.00 0.00 0.00 40 3407.8
20260507222725 20 326 6.4 8.0 0.00 0.00 0.00 38 3408.1
20260507222221 20 273 0.0 0.0 0.00 0.00 0.00 39 3408.1
20260507221718 19 117 0.0 0.0 0.00 0.00 0.00 39 3408.0
20260507221214 19 190 0.0 3.2 0.00 0.00 0.00 41 3407.9
20260507220711 18 216 3.2 4.8 0.00 0.00 0.00 41 3407.9
20260507220210 19 51 1.6 3.2 0.00 0.00 0.00 39 3407.8
20260507215705 19 318 6.4 12.9 0.00 0.00 0.00 38 3407.9
20260507215203 19 50 1.6 3.2 0.00 0.00 0.00 38 3407.7
20260507214700 19 52 0.0 3.2 0.00 0.00 0.00 39 3407.6
20260507214156 20 35 1.6 3.2 0.00 0.00 0.00 40 3407.6
20260507213652 20 355 3.2 4.8 0.00 0.00 0.00 40 3407.8
20260507213150 19 113 1.6 3.2 0.00 0.00 0.00 40 3407.7
20260507212646 19 29 1.6 3.2 0.00 0.00 0.00 39 3407.5
20260507212143 19 48 0.0 3.2 0.00 0.00 0.00 42 3407.8
20260507211640 18 323 0.0 3.2 0.00 0.00 0.00 42 3407.6
20260507211135 18 166 0.0 0.0 0.00 0.00 0.00 42 3407.7
20260507210633 18 65 0.0 0.0 0.00 0.00 0.00 42 3407.7
20260507210129 18 303 9.7 11.3 0.00 0.00 0.00 41 3407.8
20260507205626 18 53 0.0 0.0 0.00 0.00 0.00 44 3407.9
20260507205122 17 359 3.2 3.2 0.00 0.00 0.00 45 3407.8
20260507204619 17 163 6.4 8.0 0.00 0.00 0.00 43 3407.8
20260507204116 18 284 8.0 11.3 0.00 0.00 0.00 41 3407.7
20260507203614 18 166 0.0 3.2 0.00 0.00 0.00 43 3407.9
20260507203111 18 287 6.4 8.0 0.00 0.00 0.00 43 3408.1
20260507202607 18 110 0.0 0.0 0.00 0.00 0.00 45 3407.8
20260507202104 18 152 0.0 3.2 0.00 0.00 0.00 46 3407.8
20260507201559 18 89 1.6 4.8 0.00 0.00 0.00 43 3407.9
20260507201056 17 102 0.0 0.0 0.00 0.00 0.00 44 3408.0
20260507200551 17 302 4.8 8.0 0.00 0.00 0.00 40 3407.7
20260507200047 17 153 3.2 3.2 0.00 0.00 0.00 40 3408.0
20260507195545 17 350 3.2 4.8 0.00 0.00 0.00 42 3408.1
20260507195042 17 323 1.6 3.2 0.00 0.00 0.00 42 3408.1
20260507194538 18 357 4.8 8.0 0.00 0.00 0.00 44 3408.2
20260507194035 18 256 8.0 11.3 0.00 0.00 0.00 41 3408.2
20260507193532 18 241 4.8 4.8 0.00 0.00 0.00 40 3408.2
20260507193029 18 91 0.0 0.0 0.00 0.00 0.00 45 3408.1
20260507192525 18 313 4.8 4.8 0.00 0.00 0.00 41 3408.4
20260507192022 18 76 1.6 3.2 0.00 0.00 0.00 44 3408.3
20260507191517 18 313 11.3 12.9 0.00 0.00 0.00 41 3408.4
20260507191014 18 129 1.6 3.2 0.00 0.00 0.00 47 3408.4
20260507190512 17 58 1.6 3.2 0.00 0.00 0.00 45 3408.5
20260507190010 17 354 1.6 4.8 0.00 0.00 0.00 44 3408.4
20260507185508 17 67 0.0 0.0 0.00 0.00 0.00 44 3408.8
20260507185004 17 326 4.8 8.0 0.00 0.00 0.00 41 3408.5
20260507184503 17 340 6.4 8.0 0.00 0.00 0.00 44 3408.6
20260507184000 17 227 3.2 3.2 0.00 0.00 0.00 44 3408.4
20260507183456 17 10 6.4 8.0 0.00 0.00 0.00 46 3408.5
20260507182953 17 134 0.0 3.2 0.00 0.00 0.00 50 3408.4
20260507182449 17 88 0.0 3.2 0.00 0.00 0.00 43 3408.7
20260507181945 17 239 4.8 12.9 0.00 0.00 0.00 43 3408.7
20260507181442 17 301 14.5 24.1 0.00 0.00 0.00 43 3408.6
20260507180938 17 13 3.2 3.2 0.00 0.00 0.00 45 3408.6
20260507180435 16 293 6.4 8.0 0.00 0.00 0.00 43 3408.7
20260507175931 17 269 9.7 16.1 0.00 0.00 0.00 44 3408.9
20260507175428 17 4 8.0 11.3 0.00 0.00 0.00 42 3408.7
20260507174926 17 52 3.2 3.2 0.00 0.00 0.00 49 3408.7
20260507174423 16 216 1.6 3.2 0.00 0.00 0.00 47 3409.0
20260507173921 16 318 8.0 11.3 0.00 0.00 0.00 46 3408.9
20260507173417 16 330 3.2 4.8 0.00 0.00 0.00 45 3408.8
20260507172914 16 328 6.4 8.0 0.00 0.00 0.00 44 3409.0
20260507172411 17 100 0.0 3.2 0.00 0.00 0.00 44 3409.0
20260507171907 17 38 0.0 0.0 0.00 0.00 0.00 48 3409.0
20260507171403 17 269 4.8 4.8 0.00 0.00 0.00 46 3409.1
20260507170900 16 103 0.0 3.2 0.00 0.00 0.00 49 3409.2
20260507170357 16 110 1.6 3.2 0.00 0.00 0.00 55 3409.2
20260507165853 16 40 1.6 3.2 0.00 0.00 0.00 49 3409.3
20260507165349 16 108 0.0 0.0 0.00 0.00 0.00 48 3409.3
20260507164845 16 38 0.0 0.0 0.00 0.00 0.00 48 3409.3
20260507164342 16 136 6.4 8.0 0.00 0.00 0.00 49 3409.5
20260507163840 16 125 0.0 0.0 0.00 0.00 0.00 52 3409.5
20260507163337 16 203 4.8 8.0 0.00 0.00 0.00 53 3409.7
20260507162833 15 0 3.2 4.8 0.00 0.00 0.00 47 3409.7
20260507162329 15 241 6.4 8.0 0.00 0.00 0.00 51 3409.7
20260507161826 15 37 6.4 8.0 0.00 0.00 0.00 49 3409.8
20260507161322 15 95 1.6 3.2 0.00 0.00 0.00 52 3409.8
20260507160819 15 359 4.8 4.8 0.00 0.00 0.00 49 3409.9
20260507160315 15 19 3.2 4.8 0.00 0.00 0.00 51 3409.7
20260507155811 15 281 4.8 4.8 0.00 0.00 0.00 51 3409.7
20260507155307 15 9 3.2 4.8 0.00 0.00 0.00 48 3409.6
20260507154804 15 305 6.4 8.0 0.00 0.00 0.00 46 3409.5
20260507154302 14 278 3.2 3.2 0.00 0.00 0.00 47 3409.4
20260507153758 14 82 3.2 4.8 0.00 0.00 0.00 52 3409.7
20260507153254 15 336 3.2 4.8 0.00 0.00 0.00 52 3409.6
20260507152751 14 237 1.6 3.2 0.00 0.00 0.00 52 3409.8
20260507152248 15 272 6.4 8.0 0.00 0.00 0.00 53 3409.8
20260507151743 15 144 1.6 3.2 0.00 0.00 0.00 55 3409.7
20260507151240 14 129 0.0 0.0 0.00 0.00 0.00 59 3409.6
20260507150737 14 169 3.2 4.8 0.00 0.00 0.00 59 3409.7
20260507150234 14 326 3.2 4.8 0.00 0.00 0.00 59 3409.8
20260507145730 14 125 1.6 3.2 0.00 0.00 0.00 57 3409.6
20260507145226 13 120 0.0 0.0 0.00 0.00 0.00 61 3409.7
20260507144724 13 8 0.0 3.2 0.00 0.00 0.00 57 3409.6
20260507144221 13 70 0.0 0.0 0.00 0.00 0.00 60 3409.7
20260507143717 13 199 0.0 0.0 0.00 0.00 0.00 60 3409.8
20260507143215 13 65 1.6 3.2 0.00 0.00 0.00 57 3409.9
20260507142710 12 339 0.0 0.0 0.00 0.00 0.00 61 3409.9
20260507142207 12 355 1.6 3.2 0.00 0.00 0.00 61 3409.8
20260507141703 12 128 1.6 3.2 0.00 0.00 0.00 65 3409.7
20260507141201 12 131 0.0 0.0 0.00 0.00 0.00 64 3409.6
20260507140657 12 149 1.6 3.2 0.00 0.00 0.00 66 3409.5
20260507140154 12 141 0.0 0.0 0.00 0.00 0.00 65 3409.4
20260507135651 12 153 3.2 3.2 0.00 0.00 0.00 65 3409.6
20260507135149 12 264 4.8 4.8 0.00 0.00 0.00 65 3409.4
20260507134645 12 100 0.0 0.0 0.00 0.00 0.00 67 3409.4
20260507134141 11 135 0.0 0.0 0.00 0.00 0.00 71 3409.7
20260507133637 11 110 1.6 3.2 0.00 0.00 0.00 72 3409.5
20260507133135 11 146 0.0 0.0 0.00 0.00 0.00 71 3409.5
20260507132632 11 140 3.2 3.2 0.00 0.00 0.00 73 3409.8
20260507132128 11 50 0.0 0.0 0.00 0.00 0.00 74 3409.8
20260507131625 11 139 0.0 0.0 0.00 0.00 0.00 76 3409.7
20260507131122 10 135 1.6 3.2 0.00 0.00 0.00 77 3409.8
20260507130619 10 84 0.0 0.0 0.00 0.00 0.00 76 3409.6
20260507130117 10 100 0.0 0.0 0.00 0.00 0.00 78 3409.6
20260507125615 10 142 0.0 0.0 0.00 0.00 0.00 79 3409.6